User: anonymous   Login
Location: Unspecified
(0.0000°N, 0.0000°E)
Time: 22:15:34
(UTC+00:00)
Language:

BEIDOU-3 M2 - Orbit

View from above orbital plane
View from above orbital plane
View from above satellite
View from above satellite

Ground track
Ground track

The orbit is defined by the following mean orbital elements,

1 40749U          26143.83404854 +.00000000 +00000-0 +00000-0 0 00009
2 40749  54.8897 302.8719 0003923  58.3159 301.7019  1.86254827    09
Epoch (UTC): 23 May 2026 20:01:01
Eccentricity: 0.0003923
inclination: 54.8897°
perigee height: 21515 km
apogee height: 21537 km
right ascension of ascending node: 302.8719°
argument of perigee: 58.3159°
revolutions per day: 1.86254827
mean anomaly at epoch: 301.7019°

The dashed part of the orbit path shows where the satellite is in the earth's shadow,  

DLR